• In Belarus
  • List of Countries
  • For 7 days
  • Water Temperature
  • Satellite Maps
  • Weather Map
  • Weather Widgets
  • user-avatar
    Login

    Hourly Weather Fier

    Today, 23 October, Monday

    Time Temperature Precipitation Wind Pressure Humidity
    00:00 +17°C° 0.3 mm 5 mps 757 mmHg 75%
    01:00 +17°C° 0.3 mm 6 mps 756 mmHg 75%
    02:00 +17°C° 1.1 mm 5 mps 756 mmHg 74%
    03:00 +17°C° 1.1 mm 5 mps 755 mmHg 74%
    04:00 +17°C° 1.1 mm 5 mps 754 mmHg 73%
    05:00 +17°C° 0.6 mm 5 mps 754 mmHg 75%
    06:00 +18°C° 0.6 mm 4 mps 754 mmHg 78%
    07:00 +18°C° 0.6 mm 4 mps 754 mmHg 80%
    08:00 +19°C° 0.3 mm 4 mps 753 mmHg 75%
    09:00 +20°C° 0.3 mm 5 mps 753 mmHg 69%
    10:00 +21°C° 0.3 mm 5 mps 752 mmHg 64%
    11:00 +21°C° 0.6 mm 5 mps 752 mmHg 62%
    12:00 +21°C° 0.6 mm 5 mps 752 mmHg 60%
    13:00 +20°C° 0.6 mm 5 mps 751 mmHg 58%
    14:00 +19°C° 1.1 mm 4 mps 751 mmHg 63%
    15:00 +18°C° 1.1 mm 3 mps 751 mmHg 67%
    16:00 +17°C° 1.1 mm 3 mps 751 mmHg 71%
    17:00 +17°C° 0.9 mm 3 mps 751 mmHg 74%
    18:00 +16°C° 0.9 mm 3 mps 751 mmHg 77%
    19:00 +15°C° 0.9 mm 2 mps 751 mmHg 81%
    20:00 +14°C° 0.4 mm 3 mps 751 mmHg 81%
    21:00 +14°C° 0.4 mm 4 mps 751 mmHg 81%
    22:00 +13°C° 0.4 mm 4 mps 752 mmHg 82%
    23:00 +13°C° 0.4 mm 4 mps 752 mmHg 82%

    Tomorrow, 24 October, Tuesday

    Time Temperature Precipitation Wind Pressure Humidity
    00:00 +13°C° 0.4 mm 5 mps 752 mmHg 82%
    01:00 +12°C° 0.4 mm 5 mps 752 mmHg 83%
    02:00 +12°C° 0.1 mm 5 mps 751 mmHg 83%
    03:00 +12°C° 0.1 mm 5 mps 751 mmHg 83%
    04:00 +12°C° 0.1 mm 5 mps 751 mmHg 83%
    05:00 +12°C° 0 mm 5 mps 751 mmHg 81%
    06:00 +12°C° 0 mm 5 mps 751 mmHg 80%
    07:00 +12°C° 0 mm 5 mps 752 mmHg 78%
    08:00 +13°C° 0 mm 5 mps 752 mmHg 71%
    09:00 +14°C° 0 mm 6 mps 752 mmHg 65%
    10:00 +15°C° 0 mm 6 mps 752 mmHg 58%
    11:00 +16°C° 0 mm 7 mps 752 mmHg 57%
    12:00 +16°C° 0 mm 7 mps 752 mmHg 56%
    13:00 +16°C° 0 mm 8 mps 752 mmHg 55%
    14:00 +16°C° 0.1 mm 8 mps 752 mmHg 57%
    15:00 +15°C° 0.1 mm 7 mps 752 mmHg 58%
    16:00 +15°C° 0.1 mm 7 mps 752 mmHg 60%
    17:00 +14°C° 0 mm 6 mps 753 mmHg 63%
    18:00 +13°C° 0 mm 6 mps 753 mmHg 66%
    19:00 +12°C° 0 mm 5 mps 754 mmHg 69%
    20:00 +12°C° 0 mm 5 mps 754 mmHg 69%
    21:00 +12°C° 0 mm 5 mps 755 mmHg 70%
    22:00 +10°C° 0 mm 5 mps 755 mmHg 71%
    23:00 +10°C° 0 mm 5 mps 755 mmHg 71%

    Day after tomorrow, 25 October, Wednesday

    Time Temperature Precipitation Wind Pressure Humidity
    00:00 +10°C° 0 mm 5 mps 756 mmHg 71%
    01:00 +10°C° 0 mm 5 mps 756 mmHg 71%
    02:00 +10°C° 0 mm 5 mps 756 mmHg 72%
    03:00 +10°C° 0 mm 5 mps 756 mmHg 73%
    04:00 +10°C° 0 mm 5 mps 757 mmHg 74%
    05:00 +12°C° 0 mm 5 mps 757 mmHg 73%
    06:00 +12°C° 0 mm 5 mps 758 mmHg 72%
    07:00 +13°C° 0 mm 5 mps 758 mmHg 72%
    08:00 +15°C° 0 mm 5 mps 759 mmHg 65%
    09:00 +17°C° 0 mm 6 mps 759 mmHg 59%
    10:00 +20°C° 0 mm 6 mps 759 mmHg 53%
    11:00 +20°C° 0 mm 5 mps 760 mmHg 50%
    12:00 +21°C° 0 mm 5 mps 760 mmHg 47%
    13:00 +22°C° 0 mm 5 mps 760 mmHg 44%
    14:00 +22°C° 0 mm 5 mps 761 mmHg 47%
    15:00 +21°C° 0 mm 6 mps 761 mmHg 50%
    16:00 +20°C° 0 mm 6 mps 761 mmHg 53%
    17:00 +19°C° 0 mm 6 mps 762 mmHg 57%
    18:00 +16°C° 0 mm 6 mps 763 mmHg 62%
    19:00 +15°C° 0 mm 6 mps 764 mmHg 66%
    20:00 +15°C° 0 mm 5 mps 764 mmHg 68%
    21:00 +14°C° 0 mm 5 mps 765 mmHg 70%
    22:00 +14°C° 0 mm 5 mps 765 mmHg 71%
    23:00 +14°C° 0 mm 5 mps 766 mmHg 72%

    26 October, Thursday

    Time Temperature Precipitation Wind Pressure Humidity
    00:00 +13°C° 0 mm 4 mps 766 mmHg 72%
    01:00 +13°C° 0 mm 4 mps 767 mmHg 73%
    02:00 +13°C° 0 mm 4 mps 767 mmHg 73%
    03:00 +13°C° 0 mm 4 mps 767 mmHg 73%
    04:00 +13°C° 0 mm 4 mps 767 mmHg 73%
    05:00 +13°C° 0 mm 3 mps 767 mmHg 72%
    06:00 +13°C° 0 mm 3 mps 768 mmHg 71%
    07:00 +13°C° 0 mm 3 mps 768 mmHg 70%
    08:00 +17°C° 0 mm 3 mps 768 mmHg 61%
    09:00 +19°C° 0 mm 3 mps 768 mmHg 53%
    10:00 +22°C° 0 mm 3 mps 768 mmHg 44%
    11:00 +24°C° 0 mm 3 mps 768 mmHg 41%
    12:00 +25°C° 0 mm 3 mps 768 mmHg 39%
    13:00 +26°C° 0 mm 3 mps 767 mmHg 36%
    14:00 +25°C° 0 mm 3 mps 767 mmHg 40%
    15:00 +23°C° 0 mm 4 mps 767 mmHg 44%
    16:00 +22°C° 0 mm 4 mps 767 mmHg 48%
    17:00 +21°C° 0 mm 3 mps 767 mmHg 52%
    18:00 +19°C° 0 mm 3 mps 767 mmHg 57%
    19:00 +17°C° 0 mm 3 mps 767 mmHg 61%
    20:00 +17°C° 0 mm 2 mps 767 mmHg 60%
    21:00 +17°C° 0 mm 2 mps 767 mmHg 59%
    22:00 +17°C° 0 mm 2 mps 767 mmHg 58%
    23:00 +16°C° 0 mm 2 mps 767 mmHg 57%

    27 October, Friday

    Time Temperature Precipitation Wind Pressure Humidity
    00:00 +16°C° 0 mm 2 mps 767 mmHg 56%
    01:00 +16°C° 0 mm 1 mps 767 mmHg 55%
    02:00 +16°C° 0 mm 1 mps 766 mmHg 55%
    03:00 +16°C° 0 mm 1 mps 766 mmHg 54%
    04:00 +15°C° 0 mm 1 mps 766 mmHg 54%
    05:00 +16°C° 0 mm 1 mps 766 mmHg 54%
    06:00 +16°C° 0 mm 1 mps 765 mmHg 54%
    07:00 +16°C° 0 mm 1 mps 765 mmHg 53%
    08:00 +19°C° 0 mm 1 mps 765 mmHg 49%
    09:00 +21°C° 0 mm 1 mps 765 mmHg 45%
    10:00 +24°C° 0 mm 1 mps 765 mmHg 40%
    11:00 +24°C° 0 mm 1 mps 764 mmHg 39%
    12:00 +25°C° 0 mm 2 mps 763 mmHg 38%
    13:00 +25°C° 0 mm 2 mps 762 mmHg 37%
    14:00 +24°C° 0 mm 2 mps 762 mmHg 42%
    15:00 +23°C° 0 mm 2 mps 761 mmHg 47%
    16:00 +23°C° 0 mm 1 mps 761 mmHg 52%
    17:00 +21°C° 0 mm 1 mps 761 mmHg 59%
    18:00 +19°C° 0 mm 1 mps 761 mmHg 67%
    19:00 +17°C° 0 mm 2 mps 760 mmHg 74%
    20:00 +17°C° 0 mm 2 mps 760 mmHg 75%
    21:00 +16°C° 0 mm 2 mps 760 mmHg 77%
    22:00 +16°C° 0 mm 3 mps 759 mmHg 78%
    23:00 +16°C° 0 mm 3 mps 759 mmHg 78%

    28 October, Saturday

    Time Temperature Precipitation Wind Pressure Humidity
    00:00 +14°C° 0 mm 3 mps 758 mmHg 78%
    01:00 +14°C° 0 mm 3 mps 758 mmHg 78%
    02:00 +14°C° 0 mm 3 mps 757 mmHg 77%
    03:00 +14°C° 0 mm 4 mps 757 mmHg 77%
    04:00 +14°C° 0 mm 4 mps 756 mmHg 76%
    05:00 +14°C° 0 mm 4 mps 756 mmHg 74%
    06:00 +15°C° 0 mm 4 mps 756 mmHg 72%
    07:00 +15°C° 0 mm 4 mps 755 mmHg 70%
    08:00 +17°C° 0.3 mm 4 mps 755 mmHg 65%
    09:00 +19°C° 0.3 mm 4 mps 755 mmHg 59%
    10:00 +20°C° 0.3 mm 4 mps 755 mmHg 53%
    11:00 +20°C° 1 mm 3 mps 754 mmHg 56%
    12:00 +20°C° 1 mm 3 mps 754 mmHg 60%
    13:00 +19°C° 1 mm 3 mps 753 mmHg 63%
    14:00 +19°C° 1 mm 3 mps 753 mmHg 69%
    15:00 +18°C° 1 mm 3 mps 753 mmHg 75%
    16:00 +17°C° 1 mm 2 mps 752 mmHg 80%
    17:00 +16°C° 0.1 mm 2 mps 752 mmHg 82%
    18:00 +16°C° 0.1 mm 3 mps 752 mmHg 83%
    19:00 +16°C° 0.1 mm 3 mps 752 mmHg 84%
    20:00 +16°C° 0.4 mm 3 mps 752 mmHg 84%
    21:00 +16°C° 0.4 mm 3 mps 752 mmHg 84%
    22:00 +16°C° 0.4 mm 3 mps 752 mmHg 85%
    23:00 +14°C° 1 mm 4 mps 751 mmHg 85%

    29 October, Sunday

    Time Temperature Precipitation Wind Pressure Humidity
    00:00 +14°C° 1 mm 4 mps 751 mmHg 86%
    01:00 +14°C° 1 mm 5 mps 751 mmHg 87%
    02:00 +14°C° 1 mm 5 mps 751 mmHg 89%
    03:00 +14°C° 1 mm 5 mps 751 mmHg 90%
    04:00 +14°C° 1 mm 6 mps 751 mmHg 92%
    05:00 +14°C° 0.1 mm 5 mps 752 mmHg 90%
    06:00 +13°C° 0.1 mm 5 mps 752 mmHg 88%
    07:00 +13°C° 0.1 mm 5 mps 752 mmHg 85%
    08:00 +14°C° 0.1 mm 5 mps 753 mmHg 78%
    09:00 +14°C° 0.1 mm 6 mps 753 mmHg 70%
    10:00 +15°C° 0.1 mm 7 mps 753 mmHg 63%
    11:00 +15°C° 0.1 mm 7 mps 753 mmHg 58%
    12:00 +16°C° 0.1 mm 7 mps 753 mmHg 54%
    13:00 +16°C° 0.1 mm 7 mps 753 mmHg 49%
    14:00 +16°C° 0 mm 7 mps 754 mmHg 51%
    15:00 +15°C° 0 mm 7 mps 754 mmHg 52%
    16:00 +15°C° 0 mm 6 mps 754 mmHg 54%
    17:00 +14°C° 0 mm 6 mps 755 mmHg 57%
    18:00 +13°C° 0 mm 6 mps 756 mmHg 61%
    19:00 +10°C° 0 mm 6 mps 756 mmHg 65%
    20:00 +10°C° 0 mm 5 mps 757 mmHg 66%
    21:00 +10°C° 0 mm 5 mps 757 mmHg 66%
    22:00 +9°C° 0 mm 5 mps 758 mmHg 67%
    23:00 +9°C° 0 mm 5 mps 758 mmHg 68%
    Show more